Stanley, ID

10:11 PM MDT on March 27, 2017 (GMT -0600)
Stanley

Weather History for KSNT - May, 2012

Change the Weather History Date:

Sunday, May 20, 2012

  Actual Average Record
Temperature  
Mean Temperature 49 °F 44 °F  
Max Temperature 68 °F 59 °F 77 °F (1919)
Min Temperature 30 °F 29 °F 18 °F (2003)
Degree Days  
Heating Degree Days 16 21  
Month to date heating degree days 433 470  
Since 1 July heating degree days 9981 10130  
Cooling Degree Days 0 0  
Month to date cooling degree days 0 0  
Year to date cooling degree days 0 0  
Moisture  
Dew Point 29 °F    
Average Humidity 51    
Maximum Humidity 75    
Minimum Humidity 26    
Precipitation  
Precipitation 0.00 in 0.06 in 0.80 in (1923)
Month to date precipitation 0.32 1.13  
Year to date precipitation 12.09 7.97  
Sea Level Pressure  
Sea Level Pressure 30.04 in    
Wind  
Wind Speed 3 mph (WSW)    
Max Wind Speed 14 mph    
Max Gust Speed 20 mph    
T = Trace of Precipitation, MM = Missing Value Source: NWS Daily Summary

Daily Weather History Graph

Daily Weather History Graph

Search for Another Location

Airport or City:

Trip Planner

Search our weather history database for the weather conditions in past years. The results will help you decide how hot, cold, wet, or windy it might be!

Date:

Astronomy

May. 20, 2012 Rise Set
Actual Time 6:07 AM MDT 9:05 PM MDT
Civil Twilight 5:33 AM MDT 9:40 PM MDT
Nautical Twilight 4:49 AM MDT 10:24 PM MDT
Astronomical Twilight 3:57 AM MDT 11:16 PM MDT
Moon 5:51 AM MDT (5/20) 9:08 PM MDT (5/20)
Length of Visible Light 16h 06m
Length of Day
14h 58m
Waning Crescent, 0% of the Moon is Illuminated
May 20
Waning Crescent
May 20
New
May 28
First Quarter
Jun 4
Full
Jun 11
Last Quarter

Hourly Weather History & Observations

Time (MDT) Temp. Windchill Dew Point Humidity Pressure Visibility Wind Dir Wind Speed Gust Speed Precip Events Conditions
12:51 AM 33.1 °F - 24.1 °F 70% 30.05 in - Calm Calm - N/A   Unknown
1:51 AM 30.9 °F - 23.0 °F 72% 30.05 in - Calm Calm - N/A   Unknown
2:51 AM 34.0 °F - 26.1 °F 73% 30.04 in - Calm Calm - N/A   Unknown
3:51 AM 32.0 °F - 25.0 °F 75% 30.06 in - Calm Calm - N/A   Unknown
4:51 AM 34.0 °F - 27.0 °F 75% 30.04 in - Calm Calm - N/A   Unknown
5:51 AM 33.1 °F - 27.0 °F 78% 30.06 in - Calm Calm - N/A   Unknown
6:51 AM 34.0 °F - 27.0 °F 75% 30.06 in - Calm Calm - N/A   Unknown
7:51 AM 37.9 °F 35.5 °F 28.0 °F 68% 30.07 in - NNE 3.5 mph - N/A   Unknown
8:51 AM 39.9 °F 36.7 °F 28.9 °F 65% 30.08 in - NNW 4.6 mph - N/A   Unknown
9:51 AM 45.0 °F - 28.9 °F 53% 30.10 in - Calm Calm - N/A   Unknown
10:51 AM 53.1 °F - 30.9 °F 43% 30.07 in - NNW 4.6 mph - N/A   Unknown
11:51 AM 62.1 °F - 28.0 °F 28% 30.03 in - Variable 6.9 mph - N/A   Unknown
12:51 PM 61.0 °F - 27.0 °F 27% 30.03 in - South 6.9 mph - N/A   Unknown
1:51 PM 63.0 °F - 28.0 °F 27% 30.03 in - South 6.9 mph - N/A   Unknown
2:51 PM 66.0 °F - 30.0 °F 26% 30.00 in - Variable 4.6 mph 18.4 mph N/A   Unknown
3:51 PM 63.0 °F - 30.0 °F 29% 30.02 in - Variable 5.8 mph - N/A   Unknown
4:51 PM 63.0 °F - 30.0 °F 29% 30.01 in - Variable 3.5 mph - N/A   Unknown
5:51 PM 64.9 °F - 32.0 °F 29% 30.00 in - SW 8.1 mph - N/A   Unknown
6:51 PM 64.0 °F - 32.0 °F 30% 30.01 in - Variable 6.9 mph - N/A   Unknown
7:51 PM 60.1 °F - 33.1 °F 36% 30.01 in - Calm Calm - N/A   Unknown
8:51 PM 54.0 °F - 35.1 °F 49% 30.04 in - Calm Calm - N/A   Unknown
9:51 PM 48.0 °F - 34.0 °F 58% 30.05 in - SSW 3.5 mph - N/A   Unknown
10:51 PM 43.0 °F - 33.1 °F 68% 30.07 in - Calm Calm - N/A   Unknown
11:51 PM 41.0 °F - 33.1 °F 73% 30.04 in - Calm Calm - N/A   Unknown